Skip Page Navigation
NASA JPL Caltech
NASA Logo - Jet Propulsion Laboratory + View the NASA Portal
+ Center for Near-Earth Object Studies
JPL Home Earth Solar System Stars & Galaxies Technology
JPL Solar System Dynamics
BODIES ORBITS EPHEMERIDES TOOLS PHYSICAL DATA DISCOVERY FAQ SITE MAP
IMPORTANT: The SSD Announcement email list is now available. Major changes are coming in the near future, including possible hostname and/or URL changes. To be notified of such changes, subscribe to this email list.

Please visit this page for more details.


JPL Small-Body Database Browser
Search: [ help ]  
312072 (2007 TG24)
Classification: Main-belt Asteroid          SPK-ID: 2312072
Ephemeris | Orbit Diagram | Orbital Elements | Mission Design | Physical Parameters | Discovery Circumstances | Close-Approach Data ]

[ show orbit diagram ]
Orbital Elements at Epoch 2458600.5 (2019-Apr-27.0) TDB
Reference: JPL 11 (heliocentric ecliptic J2000)
 Element Value Uncertainty (1-sigma)   Units 
e .1733052473862376 5.4079e-08  
a 2.366243603752527 1.1544e-08 au
q 1.956161170628093 1.2892e-07 au
i .5935312549616337 6.101e-06 deg
node 332.9627039317573 0.00059087 deg
peri 77.25783312910792 0.00059176 deg
M 44.47434822912249 2.5092e-05 deg
tp 2458436.254039262910
(2018-Nov-13.75403926)
9.2639e-05 TDB
period 1329.497749145973
3.64
9.7294e-06
2.664e-08
d
yr
n .2707789465843417 1.9816e-09 deg/d
Q 2.776326036876962 1.3545e-08 au
  Orbit Determination Parameters
   # obs. used (total)      228  
   data-arc span      6610 days (18.10 yr)  
   first obs. used      2000-11-28  
   last obs. used      2019-01-03  
   planetary ephem.      DE431  
   SB-pert. ephem.      SB431-N16  
   condition code      0  
   norm. resid. RMS      .63272  
   source      ORB  
   producer      Otto Matic  
   solution date      2019-Jul-14 09:44:36  

Additional Information
 Earth MOID = .966273 au 
 Jupiter MOID = 2.58909 au 
 T_jup = 3.527 
[ show covariance matrix ]

Ephemeris | Orbit Diagram | Orbital Elements | Mission Design | Physical Parameters | Discovery Circumstances | Close-Approach Data ]

Physical Parameter Table
Parameter Symbol Value Units Sigma Reference Notes
absolute magnitude H 17.9   n/a MPO460288  

312072 (2007 TG24)          Discovered 2007-Oct-08 by Spacewatch at Kitt Peak
Reference: 20120109/Numbers.arcLast Updated: 2012-01-11

[ show close-approach data ]
Alternate Designations
 2007 TG24 = 2000 WT105 
Ephemeris | Orbit Diagram | Orbital Elements | Mission Design | Physical Parameters | Discovery Circumstances | Close-Approach Data ]
ABOUT SSD CREDITS/AWARDS PRIVACY/COPYRIGHT GLOSSARY LINKS
FirstGov 2019-Dec-06 21:00 UT
(server date/time)  
NASA Home Page
Site Manager:   Ryan S. Park
Webmaster  Alan B. Chamberlin